GW5110 Weather Reports


Display with metric or nautical units.
time (UTC)temp
F
wind
direction
speed
MPH
gust
MPH
rain 1hr
in
rain 24hr
in
rain mn
in
humidity
%
barometer
mb
20260508004131 49 256 0.0 0.0 0.00 0.01 0.01 77 1016.9
20260508003627 49 277 0.0 0.0 0.00 0.01 0.01 75 1016.9
20260508003125 50 247 0.0 0.0 0.00 0.01 0.01 73 1016.8
20260508002621 50 310 0.0 0.0 0.00 0.01 0.01 71 1016.9
20260508002119 51 35 0.0 0.0 0.00 0.01 0.01 70 1016.9
20260508001614 52 262 0.0 0.0 0.00 0.01 0.01 70 1017.0
20260508001110 52 250 0.0 0.0 0.00 0.01 0.01 68 1016.8
20260508000606 52 215 0.0 0.0 0.00 0.01 0.01 68 1016.7
20260508000104 52 247 0.0 0.0 0.00 0.01 0.01 67 1016.9
20260507235600 53 262 0.0 0.0 0.00 0.01 0.01 68 1016.8
20260507235057 53 262 0.0 2.0 0.00 0.01 0.01 68 1016.8
20260507234554 53 255 0.0 0.0 0.00 0.01 0.01 68 1016.7
20260507234050 53 239 0.0 2.0 0.00 0.01 0.01 66 1016.6
20260507233547 54 250 0.0 0.0 0.00 0.01 0.01 66 1016.8
20260507233046 54 239 0.0 0.0 0.00 0.01 0.01 65 1016.6
20260507232542 55 256 0.0 2.0 0.00 0.01 0.01 64 1016.4
20260507232040 55 249 0.0 2.0 0.00 0.01 0.01 63 1016.5
20260507231536 56 204 0.0 3.0 0.00 0.01 0.01 63 1016.6
20260507231034 56 264 0.0 3.0 0.00 0.01 0.01 63 1016.7
20260507230530 55 240 0.0 4.0 0.00 0.01 0.01 64 1016.5
20260507230027 55 262 0.0 2.0 0.00 0.01 0.01 63 1016.2
20260507225521 56 269 7.0 8.0 0.00 0.01 0.01 61 1016.4
20260507225018 57 290 1.0 4.0 0.00 0.01 0.01 61 1016.6
20260507224514 57 258 3.0 6.0 0.00 0.01 0.01 61 1016.5
20260507224010 57 266 0.0 1.0 0.00 0.01 0.01 61 1016.4
20260507223507 57 320 3.0 7.0 0.00 0.01 0.01 61 1016.4
20260507223004 57 189 3.0 9.0 0.00 0.01 0.01 62 1016.5
20260507222502 57 248 4.0 7.0 0.00 0.01 0.01 62 1016.5
20260507221957 56 194 0.0 3.0 0.00 0.01 0.01 63 1016.0
20260507221454 56 247 7.0 10.0 0.00 0.01 0.01 62 1016.2
20260507220951 55 238 1.0 6.0 0.00 0.01 0.01 65 1016.0
20260507220448 55 267 0.0 1.0 0.00 0.01 0.01 66 1016.1
20260507215945 55 265 3.0 7.0 0.00 0.01 0.01 66 1016.2
20260507215441 55 239 0.0 0.0 0.00 0.01 0.01 66 1015.9
20260507214939 55 269 1.0 3.0 0.00 0.01 0.01 67 1015.9
20260507214436 55 283 2.0 3.0 0.00 0.01 0.01 66 1015.9
20260507213932 55 225 0.0 1.0 0.00 0.01 0.01 68 1016.2
20260507213428 54 243 4.0 6.0 0.00 0.01 0.01 66 1015.9
20260507212925 54 355 0.0 3.0 0.00 0.01 0.01 67 1015.9
20260507212420 55 256 2.0 10.0 0.00 0.01 0.01 65 1015.9
20260507211918 54 274 2.0 2.0 0.00 0.01 0.01 67 1015.8
20260507211414 54 264 0.0 3.0 0.00 0.01 0.01 67 1015.6
20260507210911 54 256 0.0 4.0 0.00 0.01 0.01 67 1015.8
20260507210408 54 249 0.0 1.0 0.00 0.01 0.01 69 1015.4
20260507205904 54 261 0.0 1.0 0.00 0.01 0.01 68 1015.6
20260507205402 54 238 2.0 4.0 0.00 0.01 0.01 67 1015.6
20260507204858 54 245 0.0 0.0 0.00 0.01 0.01 68 1015.4
20260507204354 54 258 0.0 7.0 0.00 0.01 0.01 68 1015.6
20260507203852 54 280 1.0 6.0 0.00 0.01 0.01 68 1015.6
20260507203350 53 99 0.0 0.0 0.00 0.01 0.01 69 1015.5
20260507202846 53 254 1.0 4.0 0.00 0.01 0.01 69 1015.5
20260507202337 54 235 4.0 7.0 0.00 0.01 0.01 68 1015.6
20260507201832 53 244 2.0 3.0 0.00 0.01 0.01 69 1015.8
20260507201328 54 264 0.0 0.0 0.00 0.01 0.01 69 1015.8
20260507200824 54 205 0.0 6.0 0.00 0.01 0.01 68 1015.8
20260507200320 54 219 0.0 2.0 0.00 0.01 0.01 68 1015.9
20260507195816 54 247 0.0 6.0 0.00 0.01 0.01 71 1016.0
20260507195314 54 234 6.0 13.0 0.00 0.01 0.01 69 1015.8
20260507194812 54 251 2.0 7.0 0.00 0.01 0.01 69 1015.6
20260507194308 54 239 6.0 8.0 0.00 0.01 0.01 69 1015.8
20260507193805 54 245 0.0 7.0 0.00 0.01 0.01 71 1015.7
20260507193302 55 263 5.0 9.0 0.00 0.01 0.01 68 1015.8
20260507192757 56 281 4.0 8.0 0.00 0.01 0.01 66 1015.7
20260507192254 57 222 3.0 4.0 0.00 0.01 0.01 66 1015.7
20260507191750 56 256 3.0 8.0 0.00 0.01 0.01 67 1016.0
20260507191247 56 255 0.0 4.0 0.00 0.01 0.01 66 1016.1
20260507190743 56 243 1.0 2.0 0.00 0.01 0.01 67 1016.2
20260507190242 55 240 6.0 10.0 0.00 0.01 0.01 67 1016.2
20260507185740 54 293 1.0 4.0 0.00 0.01 0.01 69 1016.6
20260507185237 54 201 0.0 2.0 0.00 0.01 0.01 70 1016.4
20260507184735 54 285 0.0 3.0 0.00 0.01 0.01 70 1016.5
20260507184232 54 247 2.0 4.0 0.00 0.01 0.01 70 1016.5
20260507183729 54 275 1.0 2.0 0.00 0.01 0.01 71 1016.6
20260507183226 54 255 4.0 9.0 0.00 0.01 0.01 70 1016.5
20260507182723 53 250 0.0 8.0 0.00 0.01 0.01 69 1016.4
20260507182218 53 251 5.0 9.0 0.00 0.01 0.01 69 1016.2
20260507181715 53 266 0.0 2.0 0.00 0.01 0.01 70 1016.4
20260507181212 53 257 7.0 8.0 0.00 0.01 0.01 69 1016.5
20260507180709 53 262 4.0 6.0 0.00 0.01 0.01 70 1016.5
20260507180205 53 232 4.0 6.0 0.00 0.01 0.01 70 1016.4
20260507175700 53 226 2.0 8.0 0.00 0.01 0.01 71 1016.6
20260507175158 53 240 5.0 7.0 0.00 0.01 0.01 70 1016.1
20260507174655 53 257 1.0 7.0 0.00 0.01 0.01 72 1016.2
20260507174153 53 228 2.0 6.0 0.00 0.01 0.01 72 1016.4
20260507173650 53 263 2.0 6.0 0.00 0.01 0.01 72 1016.1
20260507173147 54 253 1.0 7.0 0.00 0.01 0.01 72 1016.5
20260507172643 54 247 4.0 6.0 0.00 0.01 0.01 71 1016.0
20260507172141 54 268 0.0 6.0 0.00 0.01 0.01 70 1016.1
20260507171641 54 59 0.0 4.0 0.00 0.01 0.01 71 1016.2
20260507171138 55 268 3.0 7.0 0.00 0.01 0.01 68 1016.1
20260507170635 54 244 4.0 4.0 0.00 0.01 0.01 70 1016.5
20260507170133 54 237 1.0 4.0 0.00 0.01 0.01 71 1016.1
20260507165628 55 244 1.0 4.0 0.00 0.01 0.01 70 1016.4
20260507165124 55 257 0.0 1.0 0.00 0.01 0.01 70 1016.4
20260507164620 55 188 1.0 3.0 0.00 0.01 0.01 71 1016.4
20260507164117 55 259 0.0 6.0 0.00 0.01 0.01 70 1016.6
20260507163615 54 263 1.0 1.0 0.00 0.01 0.01 72 1016.7
20260507163113 54 46 0.0 2.0 0.00 0.01 0.01 72 1016.7
20260507162613 53 231 0.0 0.0 0.00 0.01 0.01 72 1016.6
20260507162110 53 246 4.0 7.0 0.00 0.01 0.01 73 1016.6
20260507161606 53 207 0.0 0.0 0.00 0.01 0.01 74 1016.6
20260507161103 52 173 1.0 3.0 0.00 0.01 0.01 75 1016.6
20260507160600 51 293 0.0 3.0 0.00 0.01 0.01 75 1016.6
20260507160056 51 229 0.0 2.0 0.00 0.01 0.01 75 1016.9
20260507155551 51 270 0.0 4.0 0.00 0.01 0.01 75 1016.9
20260507155049 51 243 0.0 2.0 0.00 0.01 0.01 76 1016.8
20260507154545 50 62 0.0 0.0 0.00 0.01 0.01 77 1017.0
20260507154043 51 275 0.0 0.0 0.00 0.01 0.01 76 1017.0
20260507153539 50 236 0.0 0.0 0.00 0.01 0.01 77 1016.8
20260507153035 50 177 0.0 0.0 0.00 0.01 0.01 77 1017.0
20260507152531 49 258 0.0 0.0 0.00 0.01 0.01 78 1016.9
20260507152028 49 239 0.0 1.0 0.00 0.01 0.01 79 1016.8
20260507151524 49 280 0.0 0.0 0.00 0.01 0.01 79 1017.0
20260507151021 49 238 2.0 6.0 0.00 0.01 0.01 81 1017.1
20260507150518 49 275 0.0 0.0 0.00 0.01 0.01 81 1017.2
20260507150015 49 251 0.0 0.0 0.00 0.01 0.01 83 1017.1
20260507145510 49 352 0.0 0.0 0.00 0.01 0.01 83 1017.1
20260507145008 48 126 0.0 0.0 0.00 0.01 0.01 84 1017.2
20260507144504 49 11 0.0 0.0 0.00 0.01 0.01 86 1017.1
20260507144001 48 43 3.0 4.0 0.00 0.01 0.01 86 1017.0
20260507143459 48 233 0.0 0.0 0.00 0.01 0.01 86 1017.2
20260507142955 48 141 0.0 2.0 0.00 0.01 0.01 86 1017.3
20260507142451 48 251 0.0 0.0 0.00 0.01 0.01 88 1017.1
20260507141948 48 43 0.0 0.0 0.00 0.01 0.01 89 1017.2
20260507141444 47 258 0.0 0.0 0.00 0.01 0.01 89 1017.2
20260507140941 47 109 0.0 3.0 0.00 0.01 0.01 89 1017.2
20260507140438 47 258 0.0 0.0 0.00 0.01 0.01 88 1017.3
20260507135936 47 163 0.0 0.0 0.00 0.01 0.01 89 1017.3
20260507135432 47 124 0.0 0.0 0.00 0.01 0.01 89 1017.1
20260507134930 47 245 0.0 0.0 0.00 0.01 0.01 90 1017.1
20260507134426 47 238 0.0 0.0 0.00 0.01 0.01 91 1017.0
20260507133922 47 333 0.0 0.0 0.00 0.01 0.01 91 1017.3
20260507133418 47 248 0.0 1.0 0.00 0.01 0.01 92 1017.2
20260507132917 47 59 0.0 0.0 0.00 0.01 0.01 92 1017.1
20260507132413 47 71 0.0 2.0 0.00 0.01 0.01 92 1017.3
20260507131909 47 75 0.0 0.0 0.00 0.01 0.01 93 1017.3
20260507131406 46 268 0.0 0.0 0.00 0.01 0.01 93 1017.6
20260507130903 47 69 0.0 1.0 0.00 0.01 0.01 93 1017.5
20260507130400 47 192 0.0 0.0 0.00 0.01 0.01 93 1017.5
20260507125859 47 256 0.0 2.0 0.00 0.01 0.01 94 1017.4
20260507125356 47 31 0.0 1.0 0.00 0.01 0.01 94 1017.1
20260507124854 47 89 0.0 0.0 0.00 0.01 0.01 94 1017.3
20260507124349 47 110 0.0 0.0 0.00 0.01 0.01 95 1017.2
20260507123848 47 266 0.0 0.0 0.00 0.01 0.01 95 1017.6
20260507123345 47 291 0.0 0.0 0.00 0.01 0.01 95 1017.5
20260507122841 47 23 0.0 4.0 0.00 0.01 0.01 96 1017.2
20260507122337 47 287 0.0 0.0 0.00 0.01 0.01 96 1017.4
20260507121833 47 253 0.0 1.0 0.00 0.01 0.01 96 1017.4
20260507121329 47 124 0.0 0.0 0.00 0.01 0.01 96 1017.6
20260507120826 47 226 1.0 2.0 0.00 0.01 0.01 96 1017.4
20260507120322 47 90 0.0 2.0 0.00 0.01 0.01 96 1017.1
20260507115818 47 303 0.0 0.0 0.07 0.01 0.01 96 1017.1
20260507115314 47 73 0.0 3.0 0.07 0.01 0.01 96 1017.0
20260507114810 47 252 0.0 0.0 0.00 0.00 0.00 96 1017.0
20260507114307 47 254 2.0 3.0 0.00 0.00 0.00 96 1017.1
20260507113805 47 165 0.0 4.0 0.00 0.00 0.00 96 1016.9
20260507113301 49 129 2.0 4.0 0.00 0.00 0.00 97 1016.9
20260507112759 49 239 0.0 1.0 0.00 0.00 0.00 97 1016.9
20260507112256 49 209 0.0 2.0 0.00 0.00 0.00 97 1016.9
20260507111754 48 258 0.0 0.0 0.00 0.00 0.00 97 1017.0
20260507111250 48 154 0.0 4.0 0.00 0.00 0.00 97 1016.7
20260507110746 49 226 1.0 2.0 0.00 0.00 0.00 97 1016.8
20260507110243 49 267 0.0 0.0 0.00 0.00 0.00 97 1016.8
20260507105740 49 224 0.0 1.0 0.00 0.00 0.00 97 1016.6
20260507105236 49 239 0.0 0.0 0.00 0.00 0.00 97 1016.5
20260507104733 49 249 0.0 0.0 0.00 0.00 0.00 97 1016.6
20260507104230 49 250 0.0 0.0 0.00 0.00 0.00 97 1016.4
20260507103726 49 260 0.0 1.0 0.00 0.00 0.00 97 1016.2
20260507103222 49 239 0.0 0.0 0.00 0.00 0.00 97 1016.5
20260507102719 49 210 0.0 1.0 0.00 0.00 0.00 97 1016.4
20260507102215 49 229 0.0 1.0 0.00 0.00 0.00 97 1016.4
20260507101711 49 36 0.0 1.0 0.00 0.00 0.00 97 1016.0
20260507101207 49 250 0.0 0.0 0.00 0.00 0.00 97 1016.1
20260507100704 49 255 0.0 0.0 0.00 0.00 0.00 97 1016.2
20260507100203 49 253 0.0 0.0 0.00 0.00 0.00 97 1016.1
20260507095700 49 253 0.0 0.0 0.00 0.00 0.00 97 1016.1
20260507095156 49 245 0.0 0.0 0.00 0.00 0.00 97 1016.1
20260507094653 49 252 0.0 0.0 0.00 0.00 0.00 97 1015.9
20260507094150 49 241 0.0 0.0 0.00 0.00 0.00 97 1016.0
20260507093647 49 241 0.0 0.0 0.00 0.00 0.00 97 1016.0
20260507093146 49 301 0.0 0.0 0.00 0.00 0.00 97 1016.4
20260507092642 49 260 0.0 0.0 0.00 0.00 0.00 97 1016.4
20260507092139 49 282 0.0 0.0 0.00 0.00 0.00 97 1016.5
20260507091635 49 283 0.0 0.0 0.00 0.00 0.00 97 1016.4
20260507091132 49 262 0.0 0.0 0.00 0.00 0.00 97 1016.7
20260507090627 49 248 0.0 1.0 0.00 0.00 0.00 97 1016.7
20260507090125 49 230 0.0 0.0 0.00 0.00 0.00 97 1016.6
20260507085622 49 236 0.0 1.0 0.00 0.00 0.00 97 1016.5
20260507085118 50 241 0.0 0.0 0.00 0.00 0.00 97 1016.6
20260507084615 50 135 0.0 1.0 0.00 0.00 0.00 97 1016.5
20260507084112 50 245 0.0 1.0 0.00 0.00 0.00 97 1016.2
20260507083609 50 250 0.0 3.0 0.00 0.00 0.00 97 1016.2
20260507083106 50 245 0.0 4.0 0.00 0.00 0.00 97 1016.6
20260507082601 50 244 0.0 4.0 0.00 0.00 0.00 97 1016.5
20260507082058 51 262 0.0 3.0 0.00 0.00 0.00 97 1016.1
20260507081554 51 259 0.0 0.0 0.00 0.00 0.00 97 1015.9
20260507081051 51 257 0.0 0.0 0.00 0.00 0.00 97 1016.1
20260507080547 51 272 0.0 0.0 0.00 0.00 0.00 97 1016.1
20260507080044 51 244 0.0 0.0 0.00 0.00 0.00 97 1016.1
20260507075539 51 257 0.0 0.0 0.00 0.00 0.00 97 1016.5
20260507075036 51 240 0.0 1.0 0.00 0.00 0.00 97 1016.6
20260507074532 51 283 0.0 0.0 0.00 0.00 0.00 97 1016.4
20260507074031 51 269 0.0 0.0 0.00 0.00 0.00 97 1016.4
20260507073527 51 268 0.0 2.0 0.00 0.00 0.00 97 1016.1
20260507073023 51 271 0.0 0.0 0.00 0.00 0.00 97 1016.2
20260507072521 51 248 0.0 0.0 0.00 0.00 0.00 97 1016.2
20260507072018 51 274 0.0 0.0 0.00 0.00 0.00 97 1016.5
20260507071515 51 268 0.0 0.0 0.00 0.00 0.00 97 1016.4
20260507071012 51 144 0.0 0.0 0.00 0.00 0.00 97 1016.7
20260507070509 51 262 0.0 0.0 0.00 0.00 0.00 97 1016.6
20260507070010 51 117 0.0 0.0 0.00 0.00 0.00 96 1016.8
20260507065502 51 240 0.0 0.0 0.00 0.00 0.00 96 1016.7
20260507064959 51 235 0.0 1.0 0.00 0.00 0.00 96 1016.6
20260507064458 51 248 0.0 1.0 0.00 0.00 0.00 96 1016.8
20260507063955 51 243 0.0 0.0 0.00 0.00 0.00 96 1016.5
20260507063452 51 252 2.0 3.0 0.00 0.00 0.00 96 1016.6
20260507062949 51 248 0.0 0.0 0.00 0.00 0.00 96 1016.7
20260507062446 52 212 0.0 0.0 0.00 0.00 0.00 96 1016.8
20260507061943 51 242 0.0 0.0 0.00 0.00 0.00 96 1017.1
20260507061442 51 244 0.0 0.0 0.00 0.00 0.00 96 1017.1
20260507060940 51 257 0.0 1.0 0.00 0.00 0.00 96 1016.8
20260507060436 52 245 0.0 2.0 0.00 0.00 0.00 96 1016.7
20260507055933 52 226 0.0 3.0 0.00 0.00 0.00 96 1016.8
20260507055428 52 207 0.0 4.0 0.00 0.00 0.00 96 1016.7
20260507054925 52 268 0.0 1.0 0.00 0.00 0.00 96 1016.7
20260507054421 52 248 1.0 2.0 0.00 0.00 0.00 96 1016.4
20260507053919 52 307 0.0 0.0 0.00 0.00 0.00 96 1016.6
20260507053416 52 223 1.0 3.0 0.00 0.00 0.00 96 1016.9
20260507052915 53 255 2.0 3.0 0.00 0.00 0.00 97 1016.7
20260507052412 53 263 0.0 0.0 0.00 0.00 0.00 97 1016.6
20260507051903 53 136 0.0 0.0 0.00 0.00 0.00 97 1016.8
20260507051401 53 261 0.0 0.0 0.00 0.00 0.00 97 1016.8
20260507050857 53 230 0.0 0.0 0.00 0.00 0.00 97 1016.7
20260507050354 53 171 0.0 0.0 0.00 0.00 0.00 97 1016.5
20260507045851 53 260 0.0 0.0 0.00 0.00 0.00 97 1016.8
20260507045347 54 240 0.0 2.0 0.00 0.00 0.00 97 1016.9
20260507044845 54 248 0.0 0.0 0.00 0.00 0.00 97 1017.0
20260507044341 54 244 0.0 2.0 0.00 0.00 0.00 97 1017.2
20260507043837 54 253 0.0 0.0 0.00 0.00 0.00 97 1017.3
20260507043334 54 276 0.0 1.0 0.00 0.00 0.00 97 1017.1
20260507042830 54 261 0.0 4.0 0.00 0.00 0.00 97 1017.0
20260507042325 55 244 2.0 8.0 0.00 0.00 0.00 97 1017.2
20260507041823 55 241 2.0 3.0 0.00 0.00 0.00 97 1017.0
20260507041319 55 240 2.0 3.0 0.00 0.00 0.00 97 1016.4
20260507040816 55 243 0.0 0.0 0.00 0.00 0.00 97 1016.1
20260507040312 55 267 0.0 0.0 0.00 0.00 0.00 97 1015.8
20260507035808 55 238 0.0 0.0 0.05 0.46 0.46 97 1015.7
20260507035306 55 220 0.0 0.0 0.05 0.46 0.46 97 1015.5
20260507034802 55 292 0.0 0.0 0.00 0.45 0.45 97 1015.8
20260507034258 55 138 0.0 0.0 0.00 0.45 0.45 97 1015.6
20260507033757 55 31 0.0 0.0 0.00 0.45 0.45 97 1015.7
20260507033254 55 264 0.0 0.0 0.00 0.45 0.45 97 1015.8
20260507032751 55 74 0.0 0.0 0.00 0.45 0.45 97 1016.0
20260507032247 55 256 0.0 1.0 0.00 0.45 0.45 97 1016.0
20260507031743 55 262 0.0 0.0 0.00 0.45 0.45 97 1016.1
20260507031241 55 114 0.0 0.0 0.00 0.45 0.45 97 1016.2
20260507030737 55 255 0.0 0.0 0.00 0.45 0.45 97 1016.4
20260507030235 55 180 0.0 0.0 0.00 0.45 0.45 97 1016.5
20260507025732 55 83 0.0 0.0 0.00 0.45 0.45 97 1017.0
20260507025229 55 258 0.0 0.0 0.00 0.45 0.45 97 1017.2
20260507024727 55 262 0.0 0.0 0.00 0.45 0.45 97 1017.5
20260507024224 55 235 0.0 0.0 0.00 0.45 0.45 97 1018.0
20260507023719 56 86 0.0 0.0 0.00 0.45 0.45 96 1017.6
20260507023216 56 258 0.0 0.0 0.00 0.45 0.45 96 1017.7
20260507022714 56 266 0.0 0.0 0.00 0.45 0.45 96 1017.6
20260507022210 56 220 0.0 0.0 0.00 0.45 0.45 96 1017.5
20260507021706 56 162 0.0 0.0 0.07 0.45 0.45 96 1017.6
20260507021201 56 262 0.0 0.0 0.07 0.45 0.45 96 1017.6
20260507020700 56 262 0.0 0.0 0.00 0.44 0.44 96 1017.7
20260507020156 56 279 0.0 0.0 0.00 0.44 0.44 96 1017.7
20260507015654 56 269 2.0 3.0 0.00 0.44 0.44 96 1017.5
20260507015151 56 73 0.0 0.0 0.00 0.44 0.44 95 1017.1
20260507014647 56 232 0.0 3.0 0.00 0.44 0.44 95 1017.3
20260507014144 56 275 0.0 2.0 0.00 0.44 0.44 95 1017.0
20260507013641 57 237 0.0 2.0 0.00 0.44 0.44 95 1017.0
20260507013138 57 247 4.0 4.0 0.00 0.44 0.44 95 1017.1
20260507012636 58 221 3.0 6.0 0.05 0.44 0.44 95 1016.9
20260507012130 58 261 2.0 4.0 0.05 0.44 0.44 95 1016.6
20260507011629 58 250 1.0 4.0 0.00 0.43 0.43 95 1016.7
20260507011124 59 235 4.0 7.0 0.00 0.43 0.43 95 1016.5
20260507010620 60 238 1.0 4.0 0.00 0.43 0.43 94 1016.0
20260507010115 60 256 0.0 0.0 0.00 0.43 0.43 94 1015.7
20260507005613 60 261 0.0 3.0 0.00 0.43 0.43 94 1015.5
20260507005109 60 259 3.0 4.0 0.00 0.43 0.43 94 1015.4
20260507004607 60 256 0.0 0.0 0.00 0.43 0.43 94 1015.0